| time (UTC) | temp F | wind direction | speed MPH | gust MPH | rain 1hr in | rain 24hr in | rain mn in | humidity % | barometer mb |
| 20260509074844 | 39 | 260 | 0.0 | 0.0 | 0.00 | 0.00 | 0.00 | 87 | 1013.2 |
| 20260509074344 | 39 | 260 | 0.0 | 0.0 | 0.00 | 0.00 | 0.00 | 86 | 1013.2 |
| 20260509073840 | 39 | 260 | 0.0 | 0.0 | 0.00 | 0.00 | 0.00 | 86 | 1013.3 |
| 20260509073346 | 39 | 260 | 0.0 | 1.0 | 0.00 | 0.00 | 0.00 | 87 | 1013.2 |
| 20260509073342 | 39 | 260 | 0.0 | 0.0 | 0.00 | 0.00 | 0.00 | 87 | 1013.2 |
| 20260509072341 | 39 | 260 | 0.0 | 1.0 | 0.00 | 0.00 | 0.00 | 86 | 1013.3 |
| 20260509071841 | 39 | 260 | 0.0 | 1.0 | 0.00 | 0.00 | 0.00 | 86 | 1013.4 |
| 20260509071341 | 39 | 260 | 0.0 | 0.0 | 0.00 | 0.00 | 0.00 | 86 | 1013.3 |
| 20260509070841 | 39 | 260 | 0.0 | 1.0 | 0.00 | 0.00 | 0.00 | 86 | 1013.1 |
| 20260509070342 | 40 | 260 | 0.0 | 1.0 | 0.00 | 0.00 | 0.00 | 86 | 1013.3 |
| 20260509065841 | 40 | 260 | 0.0 | 0.0 | 0.00 | 0.00 | 0.00 | 86 | 1013.3 |
| 20260509065342 | 40 | 260 | 0.0 | 1.0 | 0.00 | 0.00 | 0.00 | 86 | 1013.2 |
| 20260509064845 | 40 | 260 | 0.0 | 1.0 | 0.00 | 0.00 | 0.00 | 85 | 1013.2 |
| 20260509064840 | 40 | 260 | 0.0 | 1.0 | 0.00 | 0.00 | 0.00 | 85 | 1013.2 |
| 20260509063844 | 40 | 260 | 0.0 | 1.0 | 0.00 | 0.00 | 0.00 | 85 | 1013.2 |
| 20260509063839 | 40 | 260 | 0.0 | 1.0 | 0.00 | 0.00 | 0.00 | 85 | 1013.2 |
| 20260509062846 | 40 | 260 | 0.0 | 1.0 | 0.00 | 0.00 | 0.00 | 85 | 1013.1 |
| 20260509062841 | 40 | 260 | 0.0 | 1.0 | 0.00 | 0.00 | 0.00 | 85 | 1013.2 |
| 20260509061839 | 40 | 260 | 0.0 | 1.0 | 0.00 | 0.00 | 0.00 | 85 | 1013.1 |
| 20260509061340 | 40 | 260 | 0.0 | 1.0 | 0.00 | 0.00 | 0.00 | 85 | 1013.1 |
| 20260509060839 | 40 | 260 | 0.0 | 1.0 | 0.00 | 0.00 | 0.00 | 84 | 1012.9 |
| 20260509060341 | 41 | 260 | 0.0 | 1.0 | 0.00 | 0.00 | 0.00 | 84 | 1012.9 |
| 20260509055838 | 41 | 260 | 0.0 | 0.0 | 0.00 | 0.00 | 0.00 | 83 | 1012.8 |
| 20260509055343 | 41 | 260 | 0.0 | 0.0 | 0.00 | 0.00 | 0.00 | 82 | 1012.9 |
| 20260509055338 | 41 | 260 | 0.0 | 0.0 | 0.00 | 0.00 | 0.00 | 83 | 1012.8 |
| 20260509054345 | 41 | 260 | 0.0 | 0.0 | 0.00 | 0.00 | 0.00 | 82 | 1012.9 |
| 20260509054341 | 41 | 260 | 0.0 | 0.0 | 0.00 | 0.00 | 0.00 | 83 | 1012.9 |
| 20260509053340 | 41 | 260 | 0.0 | 0.0 | 0.00 | 0.00 | 0.00 | 82 | 1012.9 |
| 20260509052838 | 42 | 260 | 0.0 | 0.0 | 0.00 | 0.00 | 0.00 | 82 | 1012.9 |
| 20260509052339 | 42 | 260 | 0.0 | 0.0 | 0.00 | 0.00 | 0.00 | 81 | 1012.9 |
| 20260509051841 | 42 | 260 | 0.0 | 1.0 | 0.00 | 0.00 | 0.00 | 81 | 1012.8 |
| 20260509051340 | 42 | 260 | 0.0 | 1.0 | 0.00 | 0.00 | 0.00 | 81 | 1012.9 |
| 20260509050839 | 42 | 0 | 0.0 | 1.0 | 0.00 | 0.00 | 0.00 | 80 | 1012.9 |
| 20260509050345 | 42 | 260 | 0.0 | 1.0 | 0.00 | 0.00 | 0.00 | 80 | 1013.0 |
| 20260509050341 | 42 | 259 | 0.0 | 1.0 | 0.00 | 0.00 | 0.00 | 80 | 1013.0 |
| 20260509045957 | 42 | 260 | 0.0 | 1.0 | 0.00 | 0.00 | 0.00 | 80 | 1012.9 |
| 20260509044840 | 43 | 260 | 0.0 | 1.0 | 0.00 | 0.00 | 0.00 | 79 | 1012.8 |
| 20260509044339 | 43 | 260 | 0.0 | 0.0 | 0.00 | 0.00 | 0.00 | 79 | 1012.8 |
| 20260509043836 | 43 | 260 | 0.0 | 0.0 | 0.00 | 0.00 | 0.00 | 78 | 1012.9 |
| 20260509043337 | 43 | 260 | 0.0 | 0.0 | 0.00 | 0.00 | 0.00 | 78 | 1012.8 |
| 20260509042834 | 43 | 260 | 0.0 | 0.0 | 0.00 | 0.00 | 0.00 | 77 | 1012.8 |
| 20260509042336 | 43 | 260 | 0.0 | 0.0 | 0.00 | 0.00 | 0.00 | 77 | 1012.8 |
| 20260509041835 | 44 | 260 | 0.0 | 0.0 | 0.00 | 0.00 | 0.00 | 76 | 1012.6 |
| 20260509041338 | 44 | 260 | 0.0 | 1.0 | 0.00 | 0.00 | 0.00 | 75 | 1012.5 |
| 20260509041332 | 44 | 260 | 0.0 | 1.0 | 0.00 | 0.00 | 0.00 | 76 | 1012.6 |
| 20260509040335 | 44 | 260 | 0.0 | 0.0 | 0.00 | 0.00 | 0.00 | 75 | 1012.6 |
| 20260509035836 | 44 | 260 | 0.0 | 0.0 | 0.00 | 0.00 | 0.00 | 74 | 1012.5 |
| 20260509035830 | 44 | 260 | 0.0 | 0.0 | 0.00 | 0.00 | 0.00 | 74 | 1012.4 |
| 20260509034831 | 44 | 260 | 0.0 | 0.0 | 0.00 | 0.00 | 0.00 | 74 | 1012.4 |
| 20260509034331 | 45 | 258 | 0.0 | 0.0 | 0.00 | 0.00 | 0.00 | 73 | 1012.4 |
| 20260509033830 | 45 | 0 | 0.0 | 0.0 | 0.00 | 0.00 | 0.00 | 73 | 1012.5 |
| 20260509033328 | 45 | 0 | 0.0 | 0.0 | 0.00 | 0.00 | 0.00 | 73 | 1012.4 |
| 20260509032834 | 45 | 260 | 0.0 | 1.0 | 0.00 | 0.00 | 0.00 | 72 | 1012.5 |
| 20260509032828 | 45 | 0 | 0.0 | 1.0 | 0.00 | 0.00 | 0.00 | 72 | 1012.5 |
| 20260509031829 | 46 | 260 | 0.0 | 1.0 | 0.00 | 0.00 | 0.00 | 72 | 1012.5 |
| 20260509031328 | 46 | 260 | 0.0 | 1.0 | 0.00 | 0.00 | 0.00 | 72 | 1012.4 |
| 20260509030830 | 46 | 260 | 0.0 | 1.0 | 0.00 | 0.00 | 0.00 | 71 | 1012.4 |
| 20260509030331 | 46 | 260 | 0.0 | 1.0 | 0.00 | 0.00 | 0.00 | 71 | 1012.3 |
| 20260509030326 | 46 | 260 | 0.0 | 1.0 | 0.00 | 0.00 | 0.00 | 71 | 1012.4 |
| 20260509025327 | 46 | 260 | 0.0 | 1.0 | 0.00 | 0.00 | 0.00 | 70 | 1012.3 |
| 20260509024827 | 47 | 260 | 0.0 | 1.0 | 0.00 | 0.00 | 0.00 | 70 | 1012.2 |
| 20260509024325 | 47 | 259 | 0.0 | 1.0 | 0.00 | 0.00 | 0.00 | 70 | 1012.2 |
| 20260509023825 | 47 | 259 | 0.0 | 1.0 | 0.00 | 0.00 | 0.00 | 69 | 1012.1 |
| 20260509023326 | 47 | 260 | 0.0 | 0.0 | 0.00 | 0.00 | 0.00 | 69 | 1012.0 |
| 20260509022829 | 47 | 260 | 0.0 | 0.0 | 0.00 | 0.00 | 0.00 | 68 | 1012.0 |
| 20260509022824 | 47 | 260 | 0.0 | 0.0 | 0.00 | 0.00 | 0.00 | 68 | 1012.0 |
| 20260509021825 | 48 | 260 | 0.0 | 0.0 | 0.00 | 0.00 | 0.00 | 68 | 1012.0 |
| 20260509021325 | 48 | 260 | 0.0 | 0.0 | 0.00 | 0.00 | 0.00 | 66 | 1011.9 |
| 20260509020824 | 48 | 260 | 0.0 | 0.0 | 0.00 | 0.00 | 0.00 | 66 | 1011.9 |
| 20260509020332 | 48 | 260 | 0.0 | 1.0 | 0.00 | 0.00 | 0.00 | 65 | 1011.7 |
| 20260509020327 | 48 | 260 | 0.0 | 0.0 | 0.00 | 0.00 | 0.00 | 65 | 1011.8 |
| 20260509015323 | 49 | 260 | 0.0 | 1.0 | 0.00 | 0.00 | 0.00 | 65 | 1011.7 |
| 20260509014823 | 49 | 260 | 0.0 | 0.0 | 0.00 | 0.00 | 0.00 | 64 | 1011.6 |
| 20260509014327 | 49 | 0 | 0.0 | 1.0 | 0.00 | 0.00 | 0.00 | 63 | 1011.5 |
| 20260509014322 | 49 | 260 | 0.0 | 1.0 | 0.00 | 0.00 | 0.00 | 63 | 1011.5 |
| 20260509013941 | 49 | 0 | 0.0 | 1.0 | 0.00 | 0.00 | 0.00 | 63 | 1011.4 |
| 20260509013439 | 49 | 259 | 0.0 | 1.0 | 0.00 | 0.00 | 0.00 | 62 | 1011.1 |
| 20260509012822 | 49 | 259 | 0.0 | 1.0 | 0.00 | 0.00 | 0.00 | 62 | 1011.2 |
| 20260509011823 | 50 | 259 | 0.0 | 1.0 | 0.00 | 0.00 | 0.00 | 63 | 1011.1 |
| 20260509011327 | 50 | 260 | 0.0 | 1.0 | 0.00 | 0.00 | 0.00 | 62 | 1010.9 |
| 20260509011322 | 50 | 260 | 0.0 | 1.0 | 0.00 | 0.00 | 0.00 | 62 | 1010.9 |
| 20260509010320 | 50 | 260 | 0.0 | 1.0 | 0.00 | 0.00 | 0.00 | 62 | 1010.8 |
| 20260509005826 | 51 | 260 | 0.0 | 1.0 | 0.00 | 0.00 | 0.00 | 60 | 1010.6 |
| 20260509005821 | 51 | 260 | 0.0 | 1.0 | 0.00 | 0.00 | 0.00 | 60 | 1010.7 |
| 20260509004820 | 51 | 259 | 0.0 | 1.0 | 0.00 | 0.00 | 0.00 | 59 | 1010.5 |
| 20260509004318 | 51 | 0 | 0.0 | 1.0 | 0.00 | 0.00 | 0.00 | 58 | 1010.4 |
| 20260509003818 | 52 | 257 | 0.0 | 1.0 | 0.00 | 0.00 | 0.00 | 57 | 1010.3 |
| 20260509003320 | 52 | 0 | 0.0 | 1.0 | 0.00 | 0.00 | 0.00 | 56 | 1010.1 |
| 20260509002823 | 53 | 0 | 0.0 | 1.0 | 0.00 | 0.00 | 0.00 | 55 | 1009.9 |
| 20260509002818 | 53 | 0 | 0.0 | 1.0 | 0.00 | 0.00 | 0.00 | 55 | 1009.9 |
| 20260509001817 | 54 | 0 | 0.0 | 1.0 | 0.00 | 0.00 | 0.00 | 54 | 1009.9 |
| 20260509001314 | 54 | 0 | 0.0 | 2.0 | 0.00 | 0.00 | 0.00 | 53 | 1009.7 |
| 20260509000815 | 55 | 260 | 0.0 | 2.0 | 0.00 | 0.00 | 0.00 | 52 | 1009.6 |
| 20260509000313 | 55 | 259 | 1.0 | 3.0 | 0.00 | 0.00 | 0.00 | 51 | 1009.5 |
| 20260508235814 | 55 | 259 | 1.0 | 3.0 | 0.00 | 0.00 | 0.00 | 50 | 1009.3 |
| 20260508235316 | 56 | 0 | 1.0 | 3.0 | 0.00 | 0.00 | 0.00 | 50 | 1009.2 |
| 20260508234814 | 56 | 273 | 1.0 | 8.0 | 0.00 | 0.00 | 0.00 | 49 | 1009.2 |
| 20260508234314 | 56 | 302 | 2.0 | 8.0 | 0.00 | 0.00 | 0.00 | 49 | 1009.1 |
| 20260508233815 | 56 | 286 | 2.0 | 5.0 | 0.00 | 0.00 | 0.00 | 48 | 1009.1 |
| 20260508233319 | 57 | 309 | 2.0 | 9.0 | 0.00 | 0.00 | 0.00 | 47 | 1008.9 |
| 20260508233313 | 56 | 309 | 2.0 | 9.0 | 0.00 | 0.00 | 0.00 | 47 | 1009.0 |
| 20260508232315 | 57 | 305 | 2.0 | 9.0 | 0.00 | 0.00 | 0.00 | 47 | 1008.9 |
| 20260508231814 | 57 | 305 | 3.0 | 9.0 | 0.00 | 0.00 | 0.00 | 46 | 1008.9 |
| 20260508231314 | 57 | 304 | 2.0 | 7.0 | 0.00 | 0.00 | 0.00 | 47 | 1008.8 |
| 20260508230815 | 58 | 288 | 3.0 | 9.0 | 0.00 | 0.00 | 0.00 | 46 | 1008.7 |
| 20260508230314 | 58 | 299 | 3.0 | 9.0 | 0.00 | 0.00 | 0.00 | 46 | 1008.7 |
| 20260508225815 | 58 | 306 | 3.0 | 9.0 | 0.00 | 0.00 | 0.00 | 46 | 1008.7 |
| 20260508225315 | 58 | 280 | 2.0 | 6.0 | 0.00 | 0.00 | 0.00 | 46 | 1008.6 |
| 20260508224813 | 58 | 283 | 2.0 | 9.0 | 0.00 | 0.00 | 0.00 | 47 | 1008.6 |
| 20260508224314 | 58 | 281 | 3.0 | 9.0 | 0.00 | 0.00 | 0.00 | 47 | 1008.5 |
| 20260508223815 | 58 | 332 | 3.0 | 9.0 | 0.00 | 0.00 | 0.00 | 46 | 1008.6 |
| 20260508223314 | 59 | 315 | 4.0 | 13.0 | 0.00 | 0.00 | 0.00 | 46 | 1008.5 |
| 20260508222813 | 59 | 298 | 4.0 | 13.0 | 0.00 | 0.00 | 0.00 | 46 | 1008.4 |
| 20260508222319 | 59 | 312 | 3.0 | 9.0 | 0.00 | 0.00 | 0.00 | 47 | 1008.5 |
| 20260508222313 | 59 | 311 | 3.0 | 10.0 | 0.00 | 0.00 | 0.00 | 46 | 1008.4 |
| 20260508221314 | 59 | 342 | 2.0 | 6.0 | 0.00 | 0.00 | 0.00 | 46 | 1008.4 |
| 20260508220815 | 60 | 309 | 2.0 | 4.0 | 0.00 | 0.00 | 0.00 | 46 | 1008.4 |
| 20260508220314 | 60 | 311 | 2.0 | 6.0 | 0.00 | 0.00 | 0.00 | 45 | 1008.3 |
| 20260508215813 | 61 | 276 | 2.0 | 7.0 | 0.00 | 0.00 | 0.00 | 44 | 1008.3 |
| 20260508215324 | 61 | 284 | 3.0 | 9.0 | 0.00 | 0.00 | 0.00 | 44 | 1008.3 |
| 20260508215314 | 61 | 227 | 3.0 | 8.0 | 0.00 | 0.00 | 0.00 | 43 | 1008.3 |
| 20260508214932 | 61 | 234 | 3.0 | 9.0 | 0.00 | 0.00 | 0.00 | 44 | 1008.3 |
| 20260508213819 | 61 | 242 | 3.0 | 14.0 | 0.00 | 0.00 | 0.00 | 44 | 1008.2 |
| 20260508213814 | 61 | 281 | 3.0 | 8.0 | 0.00 | 0.00 | 0.00 | 43 | 1008.2 |
| 20260508212816 | 61 | 327 | 3.0 | 9.0 | 0.00 | 0.00 | 0.00 | 44 | 1008.3 |
| 20260508212811 | 60 | 304 | 4.0 | 14.0 | 0.00 | 0.00 | 0.00 | 45 | 1008.3 |
| 20260508211811 | 61 | 261 | 2.0 | 8.0 | 0.00 | 0.00 | 0.00 | 44 | 1008.3 |
| 20260508211316 | 60 | 313 | 3.0 | 8.0 | 0.00 | 0.00 | 0.00 | 46 | 1008.3 |
| 20260508211310 | 60 | 296 | 3.0 | 8.0 | 0.00 | 0.00 | 0.00 | 46 | 1008.3 |
| 20260508210311 | 59 | 229 | 3.0 | 7.0 | 0.00 | 0.00 | 0.00 | 48 | 1008.3 |
| 20260508205809 | 59 | 244 | 3.0 | 8.0 | 0.00 | 0.00 | 0.00 | 45 | 1008.3 |
| 20260508205309 | 59 | 252 | 3.0 | 8.0 | 0.00 | 0.00 | 0.00 | 47 | 1008.2 |
| 20260508204811 | 59 | 281 | 3.0 | 10.0 | 0.00 | 0.00 | 0.00 | 47 | 1008.0 |
| 20260508204310 | 59 | 329 | 3.0 | 10.0 | 0.00 | 0.00 | 0.00 | 47 | 1008.1 |
| 20260508203808 | 59 | 296 | 3.0 | 11.0 | 0.00 | 0.00 | 0.00 | 45 | 1008.0 |
| 20260508203305 | 59 | 317 | 4.0 | 11.0 | 0.00 | 0.00 | 0.00 | 45 | 1008.1 |
| 20260508202805 | 59 | 254 | 4.0 | 15.0 | 0.00 | 0.00 | 0.00 | 44 | 1008.0 |
| 20260508202307 | 60 | 300 | 4.0 | 15.0 | 0.00 | 0.00 | 0.00 | 43 | 1008.1 |
| 20260508201804 | 60 | 275 | 4.0 | 11.0 | 0.00 | 0.00 | 0.00 | 44 | 1007.9 |
| 20260508201308 | 60 | 302 | 5.0 | 15.0 | 0.00 | 0.00 | 0.00 | 41 | 1007.7 |
| 20260508201304 | 60 | 276 | 4.0 | 15.0 | 0.00 | 0.00 | 0.00 | 42 | 1007.7 |
| 20260508200310 | 61 | 319 | 5.0 | 12.0 | 0.00 | 0.00 | 0.00 | 40 | 1007.7 |
| 20260508200304 | 61 | 342 | 5.0 | 13.0 | 0.00 | 0.00 | 0.00 | 41 | 1007.8 |
| 20260508195921 | 61 | 300 | 4.0 | 12.0 | 0.00 | 0.00 | 0.00 | 40 | 1007.6 |
| 20260508194802 | 61 | 243 | 5.0 | 12.0 | 0.00 | 0.00 | 0.00 | 38 | 1007.4 |
| 20260508194300 | 62 | 311 | 4.0 | 9.0 | 0.00 | 0.00 | 0.00 | 38 | 1007.4 |
| 20260508193801 | 62 | 271 | 3.0 | 9.0 | 0.00 | 0.00 | 0.00 | 39 | 1007.3 |
| 20260508193259 | 62 | 331 | 4.0 | 10.0 | 0.00 | 0.00 | 0.00 | 36 | 1007.2 |
| 20260508192800 | 62 | 250 | 4.0 | 10.0 | 0.00 | 0.00 | 0.00 | 36 | 1007.2 |
| 20260508192259 | 63 | 311 | 3.0 | 9.0 | 0.00 | 0.00 | 0.00 | 37 | 1007.2 |
| 20260508191759 | 62 | 317 | 3.0 | 11.0 | 0.00 | 0.00 | 0.00 | 38 | 1007.1 |
| 20260508191259 | 62 | 307 | 5.0 | 15.0 | 0.00 | 0.00 | 0.00 | 37 | 1007.2 |
| 20260508190759 | 62 | 321 | 5.0 | 15.0 | 0.00 | 0.00 | 0.00 | 36 | 1007.2 |
| 20260508190259 | 63 | 341 | 4.0 | 16.0 | 0.00 | 0.00 | 0.00 | 38 | 1007.3 |
| 20260508185804 | 63 | 249 | 5.0 | 16.0 | 0.00 | 0.00 | 0.00 | 36 | 1007.2 |
| 20260508185758 | 63 | 308 | 4.0 | 12.0 | 0.00 | 0.00 | 0.00 | 35 | 1007.2 |
| 20260508184812 | 62 | 343 | 5.0 | 15.0 | 0.00 | 0.00 | 0.00 | 36 | 1007.2 |
| 20260508184758 | 63 | 275 | 3.0 | 7.0 | 0.00 | 0.00 | 0.00 | 36 | 1007.1 |
| 20260508184257 | 62 | 320 | 4.0 | 14.0 | 0.00 | 0.00 | 0.00 | 38 | 1007.2 |
| 20260508183803 | 62 | 324 | 5.0 | 14.0 | 0.00 | 0.00 | 0.00 | 36 | 1007.2 |
| 20260508182757 | 62 | 320 | 5.0 | 15.0 | 0.00 | 0.00 | 0.00 | 36 | 1007.3 |
| 20260508182257 | 62 | 247 | 4.0 | 12.0 | 0.00 | 0.00 | 0.00 | 35 | 1007.3 |
| 20260508181759 | 62 | 266 | 4.0 | 12.0 | 0.00 | 0.00 | 0.00 | 36 | 1007.2 |
| 20260508181304 | 63 | 11 | 4.0 | 13.0 | 0.00 | 0.00 | 0.00 | 35 | 1007.3 |
| 20260508181258 | 62 | 243 | 4.0 | 11.0 | 0.00 | 0.00 | 0.00 | 35 | 1007.3 |
| 20260508180757 | 63 | 300 | 4.0 | 13.0 | 0.00 | 0.00 | 0.00 | 36 | 1007.2 |
| 20260508175755 | 62 | 315 | 4.0 | 10.0 | 0.00 | 0.00 | 0.00 | 36 | 1007.1 |
| 20260508175256 | 63 | 259 | 6.0 | 12.0 | 0.00 | 0.00 | 0.00 | 36 | 1007.1 |
| 20260508174756 | 63 | 252 | 5.0 | 12.0 | 0.00 | 0.00 | 0.00 | 37 | 1007.2 |
| 20260508174255 | 63 | 0 | 4.0 | 11.0 | 0.00 | 0.00 | 0.00 | 37 | 1007.2 |
| 20260508173801 | 63 | 0 | 4.0 | 10.0 | 0.00 | 0.00 | 0.00 | 35 | 1007.2 |
| 20260508173755 | 63 | 0 | 4.0 | 11.0 | 0.00 | 0.00 | 0.00 | 35 | 1007.2 |
| 20260508172756 | 63 | 0 | 4.0 | 12.0 | 0.00 | 0.00 | 0.00 | 37 | 1007.3 |
| 20260508172255 | 63 | 0 | 4.0 | 12.0 | 0.00 | 0.00 | 0.00 | 37 | 1007.2 |
| 20260508171756 | 64 | 0 | 3.0 | 10.0 | 0.00 | 0.00 | 0.00 | 38 | 1007.4 |
| 20260508171259 | 64 | 0 | 3.0 | 8.0 | 0.00 | 0.00 | 0.00 | 36 | 1007.3 |
| 20260508171255 | 63 | 319 | 3.0 | 10.0 | 0.00 | 0.00 | 0.00 | 38 | 1007.4 |
| 20260508170254 | 62 | 274 | 4.0 | 12.0 | 0.00 | 0.00 | 0.00 | 39 | 1007.4 |
| 20260508165754 | 63 | 337 | 4.0 | 12.0 | 0.00 | 0.00 | 0.00 | 36 | 1007.4 |
| 20260508165255 | 62 | 298 | 3.0 | 9.0 | 0.00 | 0.00 | 0.00 | 40 | 1007.4 |
| 20260508164754 | 62 | 314 | 2.0 | 6.0 | 0.00 | 0.00 | 0.00 | 39 | 1007.4 |
| 20260508164254 | 62 | 250 | 3.0 | 8.0 | 0.00 | 0.00 | 0.00 | 37 | 1007.6 |
| 20260508163753 | 63 | 271 | 4.0 | 8.0 | 0.00 | 0.00 | 0.00 | 36 | 1007.6 |
| 20260508163253 | 63 | 317 | 2.0 | 9.0 | 0.00 | 0.00 | 0.00 | 37 | 1007.6 |
| 20260508162754 | 61 | 318 | 3.0 | 9.0 | 0.00 | 0.00 | 0.00 | 40 | 1007.5 |
| 20260508162252 | 62 | 237 | 4.0 | 9.0 | 0.00 | 0.00 | 0.00 | 38 | 1007.6 |
| 20260508161753 | 61 | 324 | 4.0 | 10.0 | 0.00 | 0.00 | 0.00 | 40 | 1007.6 |
| 20260508161254 | 60 | 294 | 4.0 | 10.0 | 0.00 | 0.00 | 0.00 | 39 | 1007.8 |
| 20260508160753 | 61 | 268 | 4.0 | 10.0 | 0.00 | 0.00 | 0.00 | 38 | 1007.8 |
| 20260508160254 | 61 | 306 | 4.0 | 10.0 | 0.00 | 0.00 | 0.00 | 39 | 1007.9 |
| 20260508155758 | 62 | 319 | 3.0 | 7.0 | 0.00 | 0.00 | 0.00 | 37 | 1007.9 |
| 20260508155753 | 62 | 310 | 3.0 | 7.0 | 0.00 | 0.00 | 0.00 | 40 | 1007.9 |
| 20260508154754 | 61 | 297 | 3.0 | 8.0 | 0.00 | 0.00 | 0.00 | 41 | 1008.1 |
| 20260508154252 | 61 | 248 | 4.0 | 8.0 | 0.00 | 0.00 | 0.00 | 40 | 1008.1 |
| 20260508153758 | 59 | 249 | 4.0 | 11.0 | 0.00 | 0.00 | 0.00 | 38 | 1008.2 |
| 20260508153754 | 60 | 19 | 3.0 | 11.0 | 0.00 | 0.00 | 0.00 | 40 | 1008.2 |
| 20260508152753 | 60 | 260 | 4.0 | 11.0 | 0.00 | 0.00 | 0.00 | 37 | 1008.2 |
| 20260508152252 | 60 | 292 | 5.0 | 10.0 | 0.00 | 0.00 | 0.00 | 41 | 1008.2 |
| 20260508151759 | 60 | 241 | 4.0 | 13.0 | 0.00 | 0.00 | 0.00 | 35 | 1008.3 |
| 20260508151752 | 60 | 259 | 5.0 | 13.0 | 0.00 | 0.00 | 0.00 | 37 | 1008.3 |
| 20260508150754 | 60 | 305 | 3.0 | 9.0 | 0.00 | 0.00 | 0.00 | 37 | 1008.4 |
| 20260508150252 | 60 | 303 | 2.0 | 9.0 | 0.00 | 0.00 | 0.00 | 40 | 1008.4 |
| 20260508145752 | 60 | 355 | 2.0 | 6.0 | 0.00 | 0.00 | 0.00 | 41 | 1008.4 |
| 20260508145255 | 60 | 0 | 2.0 | 6.0 | 0.00 | 0.00 | 0.00 | 40 | 1008.4 |
| 20260508144753 | 59 | 313 | 3.0 | 9.0 | 0.00 | 0.00 | 0.00 | 41 | 1008.4 |
| 20260508144252 | 58 | 269 | 4.0 | 9.0 | 0.00 | 0.00 | 0.00 | 41 | 1008.4 |
| 20260508143752 | 58 | 306 | 3.0 | 9.0 | 0.00 | 0.00 | 0.00 | 40 | 1008.5 |
| 20260508143257 | 58 | 344 | 2.0 | 8.0 | 0.00 | 0.00 | 0.00 | 43 | 1008.5 |
| 20260508143253 | 59 | 319 | 2.0 | 6.0 | 0.00 | 0.00 | 0.00 | 42 | 1008.6 |
| 20260508142251 | 58 | 284 | 3.0 | 11.0 | 0.00 | 0.00 | 0.00 | 40 | 1008.5 |
| 20260508141748 | 58 | 304 | 3.0 | 11.0 | 0.00 | 0.00 | 0.00 | 42 | 1008.6 |
| 20260508141250 | 57 | 309 | 3.0 | 8.0 | 0.00 | 0.00 | 0.00 | 42 | 1008.6 |
| 20260508140749 | 57 | 236 | 3.0 | 9.0 | 0.00 | 0.00 | 0.00 | 47 | 1008.7 |
| 20260508140255 | 57 | 330 | 4.0 | 10.0 | 0.00 | 0.00 | 0.00 | 43 | 1008.8 |
| 20260508140250 | 57 | 234 | 4.0 | 10.0 | 0.00 | 0.00 | 0.00 | 42 | 1008.8 |
| 20260508135748 | 57 | 296 | 3.0 | 10.0 | 0.00 | 0.00 | 0.00 | 42 | 1008.9 |
| 20260508134747 | 57 | 309 | 3.0 | 10.0 | 0.00 | 0.00 | 0.00 | 42 | 1008.8 |
| 20260508134252 | 57 | 307 | 4.0 | 9.0 | 0.00 | 0.00 | 0.00 | 42 | 1009.0 |
| 20260508134247 | 57 | 298 | 4.0 | 10.0 | 0.00 | 0.00 | 0.00 | 42 | 1008.9 |
| 20260508133245 | 57 | 232 | 3.0 | 8.0 | 0.00 | 0.00 | 0.00 | 41 | 1008.9 |
| 20260508132744 | 57 | 322 | 3.0 | 8.0 | 0.00 | 0.00 | 0.00 | 43 | 1008.9 |
| 20260508132245 | 56 | 327 | 3.0 | 8.0 | 0.00 | 0.00 | 0.00 | 45 | 1008.9 |
| 20260508131744 | 56 | 280 | 3.0 | 11.0 | 0.00 | 0.00 | 0.00 | 43 | 1008.9 |
| 20260508131244 | 56 | 267 | 3.0 | 11.0 | 0.00 | 0.00 | 0.00 | 42 | 1009.0 |
| 20260508130744 | 56 | 286 | 2.0 | 4.0 | 0.00 | 0.00 | 0.00 | 45 | 1008.9 |
| 20260508130244 | 56 | 247 | 2.0 | 4.0 | 0.00 | 0.00 | 0.00 | 47 | 1009.0 |
| 20260508125752 | 54 | 292 | 2.0 | 9.0 | 0.00 | 0.00 | 0.00 | 49 | 1009.1 |
| 20260508125745 | 56 | 239 | 2.0 | 6.0 | 0.00 | 0.00 | 0.00 | 46 | 1009.0 |
| 20260508125244 | 55 | 291 | 3.0 | 8.0 | 0.00 | 0.00 | 0.00 | 49 | 1009.0 |
| 20260508124744 | 55 | 294 | 2.0 | 9.0 | 0.00 | 0.00 | 0.00 | 48 | 1009.1 |
| 20260508123746 | 54 | 314 | 2.0 | 5.0 | 0.00 | 0.00 | 0.00 | 49 | 1009.1 |
| 20260508123244 | 53 | 311 | 2.0 | 7.0 | 0.00 | 0.00 | 0.00 | 50 | 1009.1 |
| 20260508122747 | 53 | 242 | 2.0 | 7.0 | 0.00 | 0.00 | 0.00 | 48 | 1009.1 |
| 20260508122245 | 53 | 304 | 2.0 | 8.0 | 0.00 | 0.00 | 0.00 | 49 | 1009.1 |
| 20260508121743 | 53 | 265 | 2.0 | 8.0 | 0.00 | 0.00 | 0.00 | 50 | 1009.1 |
| 20260508121243 | 53 | 272 | 2.0 | 7.0 | 0.00 | 0.00 | 0.00 | 51 | 1009.1 |
| 20260508120744 | 53 | 277 | 2.0 | 7.0 | 0.00 | 0.00 | 0.00 | 49 | 1009.1 |
| 20260508120243 | 53 | 337 | 2.0 | 4.0 | 0.00 | 0.00 | 0.00 | 52 | 1009.1 |
| 20260508115743 | 52 | 285 | 2.0 | 5.0 | 0.00 | 0.00 | 0.00 | 54 | 1009.2 |
| 20260508115247 | 51 | 304 | 2.0 | 8.0 | 0.00 | 0.00 | 0.00 | 56 | 1009.3 |
| 20260508115242 | 51 | 288 | 2.0 | 8.0 | 0.00 | 0.00 | 0.00 | 53 | 1009.2 |
| 20260508114248 | 50 | 283 | 2.0 | 8.0 | 0.00 | 0.00 | 0.00 | 58 | 1009.2 |
| 20260508114242 | 51 | 271 | 2.0 | 8.0 | 0.00 | 0.00 | 0.00 | 58 | 1009.3 |
| 20260508113247 | 48 | 300 | 1.0 | 3.0 | 0.00 | 0.00 | 0.00 | 64 | 1009.1 |
| 20260508113243 | 49 | 259 | 1.0 | 3.0 | 0.00 | 0.00 | 0.00 | 62 | 1009.2 |
| 20260508112246 | 48 | 308 | 1.0 | 3.0 | 0.00 | 0.00 | 0.00 | 66 | 1009.1 |
| 20260508112241 | 47 | 294 | 1.0 | 2.0 | 0.00 | 0.01 | 0.00 | 67 | 1009.0 |
| 20260508111240 | 46 | 294 | 0.0 | 2.0 | 0.00 | 0.03 | 0.00 | 69 | 1009.1 |
| 20260508110740 | 46 | 295 | 0.0 | 2.0 | 0.00 | 0.03 | 0.00 | 73 | 1009.1 |
| 20260508110240 | 45 | 295 | 0.0 | 1.0 | 0.00 | 0.04 | 0.00 | 77 | 1009.1 |
| 20260508105743 | 44 | 295 | 0.0 | 1.0 | 0.00 | 0.04 | 0.00 | 77 | 1008.9 |
| 20260508105241 | 43 | 294 | 0.0 | 1.0 | 0.00 | 0.05 | 0.00 | 78 | 1008.9 |
| 20260508104745 | 43 | 295 | 0.0 | 0.0 | 0.00 | 0.05 | 0.00 | 79 | 1008.8 |
| 20260508104741 | 43 | 295 | 0.0 | 0.0 | 0.00 | 0.05 | 0.00 | 79 | 1008.8 |
| 20260508103740 | 42 | 295 | 0.0 | 0.0 | 0.00 | 0.05 | 0.00 | 80 | 1008.7 |
| 20260508103241 | 42 | 295 | 0.0 | 0.0 | 0.00 | 0.05 | 0.00 | 81 | 1008.6 |
| 20260508102740 | 42 | 295 | 0.0 | 0.0 | 0.00 | 0.05 | 0.00 | 80 | 1008.6 |
| 20260508102241 | 42 | 295 | 0.0 | 0.0 | 0.00 | 0.05 | 0.00 | 81 | 1008.7 |
| 20260508101746 | 41 | 295 | 0.0 | 0.0 | 0.00 | 0.05 | 0.00 | 80 | 1008.6 |
| 20260508101740 | 42 | 295 | 0.0 | 0.0 | 0.00 | 0.05 | 0.00 | 81 | 1008.6 |
| 20260508100739 | 41 | 295 | 0.0 | 0.0 | 0.00 | 0.05 | 0.00 | 80 | 1008.5 |
| 20260508100241 | 41 | 295 | 0.0 | 0.0 | 0.00 | 0.06 | 0.00 | 80 | 1008.4 |
| 20260508095746 | 41 | 294 | 0.0 | 0.0 | 0.00 | 0.07 | 0.00 | 80 | 1008.3 |
| 20260508095741 | 41 | 295 | 0.0 | 0.0 | 0.00 | 0.07 | 0.00 | 79 | 1008.4 |
| 20260508094742 | 41 | 295 | 0.0 | 0.0 | 0.00 | 0.07 | 0.00 | 80 | 1008.3 |
| 20260508094238 | 41 | 295 | 0.0 | 0.0 | 0.00 | 0.07 | 0.00 | 79 | 1008.2 |
| 20260508093741 | 41 | 295 | 0.0 | 0.0 | 0.00 | 0.07 | 0.00 | 79 | 1008.2 |
| 20260508093244 | 40 | 295 | 0.0 | 0.0 | 0.00 | 0.08 | 0.00 | 79 | 1008.1 |
| 20260508093239 | 40 | 295 | 0.0 | 0.0 | 0.00 | 0.08 | 0.00 | 80 | 1008.1 |
| 20260508092239 | 40 | 295 | 0.0 | 0.0 | 0.00 | 0.08 | 0.00 | 77 | 1008.2 |
| 20260508091738 | 40 | 295 | 0.0 | 0.0 | 0.00 | 0.08 | 0.00 | 77 | 1008.1 |
| 20260508091239 | 40 | 295 | 0.0 | 0.0 | 0.00 | 0.08 | 0.00 | 77 | 1008.1 |
| 20260508090743 | 40 | 295 | 0.0 | 0.0 | 0.00 | 0.08 | 0.00 | 77 | 1008.1 |
| 20260508090737 | 40 | 295 | 0.0 | 0.0 | 0.00 | 0.08 | 0.00 | 77 | 1008.1 |
| 20260508085738 | 40 | 295 | 0.0 | 0.0 | 0.00 | 0.08 | 0.00 | 77 | 1008.0 |
| 20260508085239 | 40 | 295 | 0.0 | 0.0 | 0.00 | 0.09 | 0.00 | 77 | 1008.1 |
| 20260508084737 | 40 | 295 | 0.0 | 0.0 | 0.00 | 0.09 | 0.00 | 76 | 1008.0 |
| 20260508084237 | 41 | 296 | 0.0 | 0.0 | 0.00 | 0.09 | 0.00 | 76 | 1008.0 |
| 20260508083743 | 41 | 296 | 0.0 | 0.0 | 0.00 | 0.11 | 0.00 | 76 | 1007.8 |
| 20260508083737 | 41 | 295 | 0.0 | 0.0 | 0.00 | 0.10 | 0.00 | 76 | 1007.9 |
| 20260508082740 | 41 | 295 | 0.0 | 0.0 | 0.00 | 0.11 | 0.00 | 75 | 1007.7 |
| 20260508082238 | 41 | 295 | 0.0 | 0.0 | 0.00 | 0.11 | 0.00 | 75 | 1007.6 |
| 20260508081738 | 41 | 295 | 0.0 | 0.0 | 0.00 | 0.15 | 0.00 | 75 | 1007.6 |
| 20260508081238 | 41 | 296 | 0.0 | 0.0 | 0.00 | 0.18 | 0.00 | 74 | 1007.5 |
| 20260508080739 | 42 | 296 | 0.0 | 1.0 | 0.00 | 0.20 | 0.00 | 74 | 1007.4 |
| 20260508080244 | 42 | 296 | 0.0 | 1.0 | 0.00 | 0.23 | 0.00 | 74 | 1007.3 |
| 20260508080239 | 42 | 295 | 0.0 | 1.0 | 0.00 | 0.22 | 0.00 | 74 | 1007.4 |